Voltar ao catálogo

OPS 4682 DEB

AtivoPO
NORAD 18538·DEBRIS·🇺🇸 United States

Lançado Apr 3, 1965 de Vandenberg Space Force Base

Loading…

Próximas Passagens (próximas 24 horas)

TLE

AtualizadoSource: Space-Track

Época: Sep 13, 2026, 07:11 UTC

1 18538U 65027AF  26256.29988198  .00000373  00000-0  12988-2 0  9993
2 18538  90.2462   5.6279 0027309 294.5315  91.6526 12.95332851507076

Acompanhe OPS 4682 DEB em tempo real com AllMySat

Download on the App Store